Starlink 30282

operational
NORAD ID: 57883 Int'l Des: 2023-144 Owner: SPXS Country: US Constellation: starlink
LEOCIRCULAR

Über Starlink 30282

Beschreibung wird geladen...

Live-Position

3D-Globus wird geladen...

Nächste Überflüge

Höhenverlauf

Altitude vs Time

uPlot chart will show altitude changes over time

Zweizeiliger Elementsatz

1 57883U 23144V 26034.58754108 .00007237 00000-0 55073-3 0 9990
2 57883 43.0038 112.5321 0001256 282.9673 77.1029 15.02501478132484
Epoch: 3. Feb. 2026 • Age: 28 hours

Aktueller Status

Höhe 560.9 km
Geschwindigkeit 7.59 km/s
Subsatellitenpunkt 32.00°N, 157.38°W
Startdatum 16. Sept. 2023
Alter 2.3 years
Typ internet

Technische Details

Klassifizierung Payload
Masse 730.00 kg
Trockenmasse 700.00 kg
Gesamtmasse 730.00 kg
Länge 0.30 m
Durchmesser 4.10 m
Spannweite 29.00 m
Form Box + pan
Hersteller SPXS
Bus-Typ Starlink V2M
Phasenstatus In Orbit
Besitzer/Staat SPXS/US

Große Konstellationen

Loading constellations...